[[{"header":{"parameterUnit":"m.s-1","parameterCategory":1,"la1":30.2991,"la2":30.254,"lo1":-89.0895,"lo2":-89.0444,"dy":0.0017,"dx":0.0017,"nx":28,"ny":28,"refTime":"2024-10-06T03:00:00:Z","depth":0,"parameterNumber":2,"parameterNumberName":"U-component_of_WINDS"},"data":[0,0,0,0,0,0,0,0,0,0,0,0,0,0,0,0,0,0,0,0,0,0,0,0,0,0,0,0,0,0,0,0,0,0,0,0,0,0,0,0,0,0,0,0,0,0,0,0,0,0,0,0,0,0,0,0,0,0,-3.6733,-3.6734,0,-3.6783,-3.6784,-3.6784,-3.6739,-3.6737,-3.6736,-3.6734,-3.6784,-3.6787,-3.679,0,0,0,0,0,0,0,0,0,0,0,0,0,-3.66,-3.6603,-3.6733,-3.6734,-3.6734,-3.6783,-3.6784,-3.6784,-3.674,-3.6737,-3.6735,-3.6733,-3.6783,-3.6787,-3.679,0,0,0,0,0,0,0,0,0,0,0,0,0,-3.6655,-3.6604,-3.6733,-3.6718,-3.6717,-3.6783,-3.6784,-3.6785,-3.674,-3.6737,-3.6734,-3.6732,-3.6782,-3.6786,-3.6791,-3.6874,0,0,-3.6805,-3.6807,0,0,0,0,0,0,0,0,-3.6652,-3.666,-3.672,-3.6719,-3.6718,-3.6752,-3.6755,-3.6815,-3.6741,-3.6731,-3.6734,-3.6731,-3.6776,-3.678,-3.6796,-3.6876,-3.6878,-3.6805,-3.6808,-3.681,-3.6811,0,0,0,0,0,0,0,-3.6648,-3.6657,-3.6753,-3.672,-3.672,-3.6709,-3.6714,-3.6766,-3.6768,-3.6732,-3.6729,-3.6735,-3.6775,-3.6792,-3.6797,-3.6879,-3.6805,-3.6809,-3.6812,-3.6814,-3.7034,-3.7037,0,0,0,0,0,0,-3.6646,-3.6654,-3.6751,-3.6754,-3.6678,-3.6714,-3.6719,-3.6744,-3.6767,-3.6768,-3.6738,-3.6733,-3.6785,-3.6791,-3.6798,-3.6899,-3.681,-3.6814,-3.6817,-3.7031,-3.7034,-3.7038,0,0,0,0,0,0,-3.6643,-3.6655,-3.6749,-3.6704,-3.6715,-3.6719,-3.6747,-3.6746,-3.6763,-3.6772,-3.6772,-3.6754,-3.6783,-3.6792,-3.6856,-3.69,-3.6816,-3.682,-3.7027,-3.7032,-3.7036,-3.71,0,0,0,0,0,0,-3.6639,-3.6654,-3.6685,-3.6705,-3.6717,-3.6806,-3.675,-3.6749,-3.6771,-3.6766,-3.6788,-3.6789,-3.6782,-3.685,-3.6861,-3.6905,-3.6824,-3.7023,-3.7029,-3.7035,-3.7094,-3.7106,-3.7117,0,0,0,0,0,-3.6635,-3.67,-3.6687,-3.6699,-3.6756,-3.6809,-3.6816,-3.6807,-3.6775,-3.6807,-3.6813,-3.6788,-3.6894,-3.6857,-3.6869,-3.6915,-3.702,-3.7027,-3.7034,-3.7089,-3.7104,-3.7117,0,0,0,0,0,0,-3.6684,-3.6702,-3.6688,-3.6761,-3.6784,-3.6801,-3.684,-3.6823,-3.6854,-3.6848,-3.6835,-3.6841,-3.6909,-3.6918,-3.6877,-3.6998,-3.6952,-3.6962,-3.6989,-3.7004,-3.7015,-3.7011,-3.6828,0,0,0,0,0,-3.6704,-3.6745,-3.6758,-3.6822,-3.6834,-3.6836,-3.6858,-3.685,-3.6872,-3.6881,-3.6892,-3.6915,-3.6954,-3.6979,-3.7015,-3.7096,-3.7101,-3.7134,-3.7145,-3.7154,-3.7163,-3.7209,-3.7224,-3.7061,-3.7061,-3.7061,0,0,-3.6744,-3.6759,-3.6785,-3.6832,-3.6849,-3.6892,-3.6844,-3.6891,-3.6923,-3.6888,-3.695,-3.696,-3.6985,-3.7058,-3.7091,-3.7068,-3.721,-3.7163,-3.7171,-3.7174,-3.7218,-3.7233,-3.7247,-3.7065,-3.7065,-3.7064,0,0,-3.684,-3.6855,-3.6911,-3.6929,-3.6956,-3.6957,-3.6971,-3.6991,-3.6997,-3.7059,-3.7035,-3.7073,-3.7139,-3.7159,-3.7178,-3.7286,-3.7265,-3.7299,-3.7358,-3.7403,-3.7416,-3.7427,-3.7467,-3.7482,-3.7307,-3.7307,-3.7307,0,-3.6886,-3.6951,-3.6941,-3.6992,-3.7014,-3.6986,-3.7044,-3.7062,-3.7099,-3.7115,-3.7089,-3.7174,-3.7189,-3.7268,-3.7295,-3.7311,-3.7327,-3.7295,-3.7415,-3.7426,-3.7437,-3.7475,-3.749,-3.7311,-3.7311,-3.731,-3.731,0,-3.7008,-3.7053,-3.7095,-3.7133,-3.716,-3.7213,-3.7213,-3.7242,-3.7233,-3.7237,-3.7303,-3.732,-3.7361,-3.7379,-3.7369,-3.7458,-3.7443,-3.7416,-3.7369,-3.7456,-3.7492,-3.7506,-3.7317,-3.7315,-3.7314,-3.7313,0,0,-3.7132,-3.7168,-3.7183,-3.7202,-3.7231,-3.7266,-3.732,-3.736,-3.7386,-3.7413,-3.7458,-3.7517,-3.7494,-3.7516,-3.7508,-3.7548,-3.7635,-3.7517,-3.7517,-3.7539,-3.7737,-3.7757,-3.7774,-3.7622,-3.7625,-3.7627,-3.7735,0,-3.723,-3.7323,-3.7319,-3.7406,-3.7449,-3.7426,-3.7473,-3.7496,-3.7503,-3.7541,-3.7548,-3.7591,-3.7556,-3.7569,-3.7608,-3.7617,-3.7675,-3.7609,-3.7665,-3.7667,-3.7659,-3.7792,-3.7813,-3.7913,-3.7749,-3.7751,-3.7753,0,-3.7355,-3.7389,-3.7482,-3.7508,-3.7526,-3.7568,-3.7606,-3.7643,-3.767,-3.7673,-3.7699,-3.7687,-3.7742,-3.7695,-3.7773,-3.7728,-3.7751,-3.776,-3.7764,-3.7768,-3.7715,-3.7801,-3.7945,-3.7961,-3.7775,-3.7773,-3.7771,0,-3.7439,-3.7507,-3.7572,-3.7588,-3.762,-3.7651,-3.7665,-3.769,-3.7716,-3.7751,-3.7768,-3.7808,-3.783,-3.7862,-3.7861,-3.7826,-3.7941,-3.7893,-3.7945,-3.7945,-3.7969,-3.7967,-3.812,-3.7984,-3.7984,-3.7984,-3.7983,0,-3.7548,-3.7606,-3.761,-3.765,-3.7715,-3.771,-3.7775,-3.7786,-3.781,-3.7852,-3.7835,-3.7875,-3.7872,-3.7914,-3.7914,-3.7979,-3.7989,-3.7993,-3.7993,-3.7995,-3.7995,-3.8009,-3.8002,-3.7988,-3.7987,-3.7986,-3.7985,0,-3.7651,-3.7656,-3.7726,-3.7752,-3.776,-3.7806,-3.7829,-3.7867,-3.7874,-3.7929,-3.7941,-3.7952,-3.8,-3.8003,-3.8058,-3.8059,-3.8139,-3.813,-3.813,-3.8128,-3.8181,-3.8176,-3.8348,-3.8371,-3.822,-3.8222,-3.8223,0,-3.772,-3.7764,-3.7796,-3.7824,-3.7841,-3.7885,-3.7913,-3.7911,-3.794,-3.7978,-3.8012,-3.806,-3.8097,-3.8176,-3.8188,-3.8232,-3.8224,-3.8282,-3.823,-3.8233,-3.8226,-3.8224,-3.8229,-3.8291,-3.8293,-3.8294,-3.8295,0,-3.7842,-3.7844,-3.7884,-3.7927,-3.796,-3.7993,-3.8024,-3.8048,-3.805,-3.8085,-3.8135,-3.8164,-3.8222,-3.827,-3.8313,-3.8329,-3.8314,-3.8312,-3.8327,-3.8329,-3.8327,-3.833,-3.8157,-3.8307,-3.8306,-3.8305,-3.8305,-3.8304,-3.7931,-3.797,-3.8,-3.8046,-3.807,-3.81,-3.8139,-3.8152,-3.8193,-3.8241,-3.8238,-3.8294,-3.8324,-3.8381,-3.8401,-3.8445,-3.8426,-3.8446,-3.8452,-3.8457,-3.8463,-3.8321,-3.8453,-3.8453,-3.8452,-3.8452,-3.8452,0,-3.8053,-3.8072,-3.8115,-3.816,-3.8197,-3.8181,-3.8215,-3.8248,-3.8297,-3.8327,-3.8365,-3.8425,-3.8472,-3.849,-3.8537,-3.8569,-3.8564,-3.8582,-3.8579,-3.8584,-3.8477,-3.846,-3.8586,-3.8586,-3.8586,-3.8586,-3.8586,-3.8586,-3.8121,-3.8187,-3.8193,-3.8273,-3.8291,-3.8347,-3.8368,-3.8397,-3.8421,-3.8488,-3.8528,-3.854,-3.8566,-3.8615,-3.8659,-3.8663,-3.8681,-3.8703,-3.8704,-3.8604,-3.8591,-3.8578,-3.8562,-3.8707,-3.8707,-3.8807,-3.8808,-3.8809]},{"header":{"parameterUnit":"m.s-1","parameterCategory":1,"la1":30.2991,"la2":30.254,"lo1":-89.0895,"lo2":-89.0444,"dy":0.0017,"dx":0.0017,"nx":28,"ny":28,"refTime":"2024-10-06T03:00:00:Z","depth":0,"parameterNumber":3,"parameterNumberName":"V-component_of_WINDS"},"data":[0,0,0,0,0,0,0,0,0,0,0,0,0,0,0,0,0,0,0,0,0,0,0,0,0,0,0,0,0,0,0,0,0,0,0,0,0,0,0,0,0,0,0,0,0,0,0,0,0,0,0,0,0,0,0,0,0,0,-3.6629,-3.6631,0,-3.6797,-3.6798,-3.68,-3.686,-3.6859,-3.6858,-3.6858,-3.7028,-3.7033,-3.7038,0,0,0,0,0,0,0,0,0,0,0,0,0,-3.6361,-3.6366,-3.6629,-3.6631,-3.6633,-3.6796,-3.6799,-3.6801,-3.686,-3.6859,-3.6858,-3.6858,-3.7027,-3.7033,-3.7039,0,0,0,0,0,0,0,0,0,0,0,0,0,-3.6498,-3.6367,-3.6629,-3.6682,-3.6689,-3.6796,-3.6799,-3.6801,-3.686,-3.6859,-3.6858,-3.6857,-3.7025,-3.7032,-3.704,-3.7105,0,0,-3.7063,-3.7066,0,0,0,0,0,0,0,0,-3.649,-3.6508,-3.6672,-3.6679,-3.6686,-3.6806,-3.6767,-3.6903,-3.686,-3.6795,-3.6858,-3.6857,-3.6955,-3.6968,-3.7002,-3.7113,-3.712,-3.7064,-3.7068,-3.7072,-3.7074,0,0,0,0,0,0,0,-3.6481,-3.6501,-3.6695,-3.6675,-3.6683,-3.6698,-3.6717,-3.6793,-3.6878,-3.6801,-3.6805,-3.6824,-3.6959,-3.6994,-3.7006,-3.7123,-3.7063,-3.707,-3.7075,-3.7078,-3.7299,-3.73,0,0,0,0,0,0,-3.6462,-3.6493,-3.669,-3.67,-3.6584,-3.6704,-3.6725,-3.6769,-3.6877,-3.6893,-3.6825,-3.6826,-3.6982,-3.6997,-3.7012,-3.7098,-3.7072,-3.7079,-3.7083,-3.7298,-3.73,-3.7301,0,0,0,0,0,0,-3.6456,-3.6479,-3.6683,-3.6598,-3.6625,-3.671,-3.6759,-3.6772,-3.6808,-3.6896,-3.6911,-3.6845,-3.6982,-3.7002,-3.7082,-3.7104,-3.7082,-3.7089,-3.7296,-3.7298,-3.73,-3.7268,0,0,0,0,0,0,-3.6448,-3.6477,-3.6502,-3.6598,-3.6629,-3.675,-3.676,-3.6776,-3.6821,-3.6825,-3.6919,-3.6934,-3.6982,-3.7071,-3.709,-3.7115,-3.7095,-3.7295,-3.7297,-3.73,-3.7267,-3.7268,-3.7269,0,0,0,0,0,-3.6438,-3.6485,-3.6503,-3.6526,-3.6663,-3.6751,-3.6769,-3.6824,-3.6823,-3.6849,-3.6906,-3.6931,-3.7099,-3.7078,-3.7101,-3.7128,-3.7294,-3.7297,-3.7299,-3.7267,-3.7268,-3.7269,0,0,0,0,0,0,-3.6388,-3.6499,-3.6519,-3.6599,-3.6665,-3.6761,-3.6795,-3.6823,-3.6891,-3.6891,-3.6956,-3.6977,-3.7053,-3.7099,-3.7074,-3.7198,-3.7198,-3.7205,-3.7165,-3.7168,-3.7168,-3.7156,-3.7101,0,0,0,0,0,-3.6387,-3.6449,-3.6542,-3.6603,-3.6636,-3.671,-3.675,-3.6787,-3.6858,-3.6886,-3.6949,-3.7017,-3.7086,-3.7129,-3.7197,-3.7275,-3.7297,-3.7305,-3.7306,-3.7306,-3.7311,-3.7358,-3.7363,-3.731,-3.731,-3.731,0,0,-3.6384,-3.6452,-3.6487,-3.6595,-3.6651,-3.6714,-3.6733,-3.6799,-3.6847,-3.6896,-3.6977,-3.7025,-3.7106,-3.7186,-3.7224,-3.7226,-3.7331,-3.731,-3.7309,-3.7315,-3.7361,-3.7366,-3.7371,-3.7312,-3.7312,-3.7312,0,0,-3.641,-3.6468,-3.6526,-3.6582,-3.6667,-3.6717,-3.673,-3.6823,-3.6857,-3.6939,-3.6978,-3.7037,-3.7153,-3.7209,-3.7253,-3.7305,-3.7331,-3.7325,-3.733,-3.7374,-3.7379,-3.7383,-3.7402,-3.7408,-3.733,-3.733,-3.733,0,-3.6395,-3.6493,-3.6552,-3.6617,-3.6664,-3.6713,-3.6773,-3.6825,-3.6927,-3.6958,-3.696,-3.7108,-3.7166,-3.726,-3.7273,-3.7307,-3.7326,-3.7314,-3.7373,-3.7378,-3.7382,-3.7402,-3.7409,-3.7329,-3.7329,-3.7329,-3.7329,0,-3.6471,-3.6538,-3.6575,-3.6674,-3.6725,-3.6787,-3.6856,-3.6901,-3.6935,-3.6984,-3.7068,-3.714,-3.7223,-3.7249,-3.7281,-3.7349,-3.7348,-3.736,-3.7361,-3.7385,-3.7404,-3.7412,-3.7327,-3.7328,-3.7328,-3.7328,0,0,-3.6468,-3.6602,-3.6614,-3.666,-3.6759,-3.6812,-3.6877,-3.696,-3.6998,-3.7068,-3.7125,-3.7223,-3.7236,-3.7286,-3.7326,-3.7365,-3.7403,-3.7373,-3.7376,-3.7377,-3.7484,-3.7473,-3.7481,-3.7421,-3.7423,-3.7424,-3.7477,0,-3.6508,-3.6627,-3.6683,-3.6777,-3.6841,-3.689,-3.6947,-3.7014,-3.7063,-3.7124,-3.7179,-3.7248,-3.7259,-3.729,-3.7331,-3.7389,-3.7425,-3.7387,-3.7475,-3.7478,-3.7453,-3.7491,-3.748,-3.7526,-3.7485,-3.7486,-3.7487,0,-3.657,-3.6641,-3.6741,-3.6834,-3.6863,-3.6913,-3.6995,-3.7053,-3.7131,-3.7164,-3.7221,-3.7261,-3.7332,-3.7329,-3.7429,-3.7401,-3.7441,-3.7476,-3.7479,-3.7489,-3.7483,-3.7502,-3.7542,-3.7548,-3.7499,-3.7498,-3.7497,0,-3.6559,-3.6679,-3.6755,-3.6794,-3.6904,-3.6939,-3.6986,-3.7063,-3.7111,-3.7182,-3.7214,-3.7293,-3.7336,-3.7397,-3.7457,-3.7449,-3.7552,-3.7553,-3.7582,-3.758,-3.76,-3.7598,-3.7647,-3.7626,-3.7626,-3.7626,-3.7626,0,-3.6597,-3.6656,-3.6752,-3.6799,-3.6868,-3.6933,-3.6999,-3.7051,-3.712,-3.7178,-3.7226,-3.7279,-3.7355,-3.7419,-3.7467,-3.7543,-3.7562,-3.7592,-3.7603,-3.7587,-3.7583,-3.7614,-3.7612,-3.7628,-3.7627,-3.7627,-3.7627,0,-3.6595,-3.6662,-3.6748,-3.6847,-3.6873,-3.692,-3.7004,-3.7052,-3.7105,-3.7178,-3.7199,-3.7281,-3.7359,-3.7425,-3.7527,-3.756,-3.7639,-3.7653,-3.7612,-3.7619,-3.7644,-3.7641,-3.7714,-3.7727,-3.7697,-3.7697,-3.7697,0,-3.6615,-3.6662,-3.6767,-3.681,-3.6857,-3.6925,-3.6974,-3.7041,-3.709,-3.7184,-3.7221,-3.7303,-3.7371,-3.7493,-3.7562,-3.7642,-3.7658,-3.7679,-3.767,-3.7653,-3.7659,-3.7655,-3.7661,-3.7678,-3.7678,-3.7678,-3.7678,0,-3.6643,-3.6674,-3.6743,-3.6825,-3.6882,-3.6949,-3.7017,-3.705,-3.713,-3.7183,-3.7263,-3.7317,-3.7422,-3.7503,-3.759,-3.764,-3.7673,-3.7681,-3.7692,-3.7675,-3.765,-3.7665,-3.7613,-3.7678,-3.7678,-3.7678,-3.7678,-3.7678,-3.6653,-3.6698,-3.6779,-3.6855,-3.6914,-3.6978,-3.7028,-3.7088,-3.7156,-3.7248,-3.7284,-3.7366,-3.7446,-3.7566,-3.7617,-3.7683,-3.7688,-3.7703,-3.7707,-3.771,-3.7708,-3.764,-3.7699,-3.7699,-3.7699,-3.77,-3.77,0,-3.6684,-3.674,-3.6809,-3.6904,-3.6964,-3.6991,-3.7069,-3.7117,-3.7189,-3.7261,-3.7328,-3.7422,-3.7502,-3.7578,-3.7662,-3.77,-3.7718,-3.772,-3.7718,-3.7729,-3.7699,-3.7681,-3.7705,-3.7705,-3.7705,-3.7705,-3.7705,-3.7705,-3.6707,-3.6785,-3.6827,-3.6935,-3.6991,-3.7072,-3.7115,-3.7174,-3.7232,-3.7335,-3.7401,-3.7451,-3.7525,-3.7615,-3.769,-3.7711,-3.7739,-3.7738,-3.7762,-3.7732,-3.7731,-3.7729,-3.7713,-3.7743,-3.7743,-3.7787,-3.7788,-3.7788]}]]